Weather History for Cartersville, GA

Change the Weather History Date:

Friday, May 11, 2012

  Actual Average Record
Temperature  
Mean Temperature 61 °F 66 °F  
Max Temperature 78 °F 79 °F 91 °F (2007)
Min Temperature 44 °F 54 °F 44 °F (2012)
Degree Days  
Heating Degree Days 4    
Cooling Degree Days 0 3  
Month to date cooling degree days 25  
Year to date cooling degree days 50  
Growing Degree Days 11 (Base 50)    
Moisture  
Dew Point 49 °F    
Average Humidity 68    
Maximum Humidity 97    
Minimum Humidity 36    
Precipitation  
Precipitation 0.00 in 0.13 in 1.70 in (1957)
Month to date precipitation 1.47  
Year to date precipitation 19.60  
Sea Level Pressure  
Sea Level Pressure 30.08 in    
Wind  
Wind Speed 2 mph (East)    
Max Wind Speed 12 mph    
Max Gust Speed 18 mph    
Visibility 10 miles    
Events      
T = Trace of Precipitation, MM = Missing Value Source: NWS Daily Summary

Daily Weather History Graph

Daily Weather History Graph

Search for Another Location

Airport:

Trip Planner

Search our weather history database for the weather conditions in past years. The results will help you decide how hot, cold, wet, or windy it might be!

Date:

Astronomy

May. 11, 2012 Rise Set
Actual Time 6:40 AM EDT 8:31 PM EDT
Civil Twilight 6:12 AM EDT 8:59 PM EDT
Nautical Twilight 5:39 AM EDT 9:32 PM EDT
Astronomical Twilight 5:04 AM EDT 10:07 PM EDT
Moon 1:12 AM EDT (5/11) 12:09 PM EDT (5/11)
Length of Visible Light 14h 46m
Length of Day
13h 51m
Waning Gibbous, 63% of the Moon is Illuminated
May 11
Waning Gibbous
May 12
Last Quarter
May 20
New
May 28
First Quarter
Jun 4
Full

Hourly Weather History & Observations

Time (EDT) Temp. Dew Point Humidity Pressure Visibility Wind Dir Wind Speed Gust Speed Precip Events Conditions
12:53 AM 51.1 °F 48.9 °F 92% 30.00 in 10.0 mi Calm Calm - N/A   Clear
1:53 AM 48.0 °F 46.9 °F 96% 30.00 in 10.0 mi Calm Calm - N/A   Clear
2:53 AM 46.9 °F 46.0 °F 97% 30.01 in 10.0 mi Calm Calm - N/A   Clear
3:53 AM 48.0 °F 46.9 °F 96% 30.01 in 10.0 mi Calm Calm - N/A   Clear
4:53 AM 45.0 °F 44.1 °F 97% 30.03 in 10.0 mi Calm Calm - N/A   Clear
5:53 AM 45.0 °F 44.1 °F 97% 30.05 in 10.0 mi Calm Calm - N/A   Clear
6:53 AM 44.1 °F 43.0 °F 96% 30.06 in 8.0 mi Calm Calm - N/A   Clear
7:53 AM 51.1 °F 48.0 °F 89% 30.09 in 10.0 mi Calm Calm - N/A   Clear
8:53 AM 55.9 °F 48.0 °F 75% 30.12 in 10.0 mi Calm Calm - N/A   Clear
9:53 AM 64.0 °F 48.9 °F 58% 30.10 in 10.0 mi NE 8.1 mph - N/A   Clear
10:53 AM 68.0 °F 46.9 °F 47% 30.10 in 10.0 mi ENE 10.4 mph 18.4 mph N/A   Clear
11:53 AM 71.1 °F 46.0 °F 41% 30.11 in 10.0 mi East 11.5 mph 17.3 mph N/A   Clear
12:53 PM 72.0 °F 46.9 °F 41% 30.11 in 10.0 mi East 4.6 mph - N/A   Clear
1:53 PM 73.9 °F 48.0 °F 40% 30.10 in 10.0 mi East 9.2 mph 17.3 mph N/A   Clear
2:53 PM 75.9 °F 48.0 °F 37% 30.11 in 10.0 mi Variable 4.6 mph - N/A   Partly Cloudy
3:53 PM 77.0 °F 48.9 °F 37% 30.10 in 10.0 mi Variable 5.8 mph - N/A   Clear
4:53 PM 78.1 °F 48.9 °F 36% 30.09 in 10.0 mi East 4.6 mph - N/A   Clear
5:53 PM 75.0 °F 48.9 °F 40% 30.10 in 10.0 mi ESE 5.8 mph - N/A   Clear
6:53 PM 75.0 °F 50.0 °F 41% 30.09 in 10.0 mi Variable 3.5 mph - N/A   Clear
7:53 PM 69.1 °F 57.9 °F 68% 30.09 in 10.0 mi Calm Calm - N/A   Clear
8:53 PM 62.1 °F 57.0 °F 84% 30.11 in 10.0 mi Calm Calm - N/A   Clear
9:53 PM 60.1 °F 55.9 °F 86% 30.12 in 10.0 mi Calm Calm - N/A   Clear
10:53 PM 60.1 °F 55.0 °F 83% 30.13 in 10.0 mi Calm Calm - N/A   Clear
11:53 PM 63.0 °F 52.0 °F 67% 30.15 in 10.0 mi Calm Calm - N/A   Clear